星链-32576 (STARLINK-32576)

导读 | 豆包AI

STARLINK-32576是美国于2024年12月13日发射的星链卫星,隶属于SpaceX公司打造的星链星座项目。星链项目旨在构建全球卫星互联网,为全球多地提供高速宽带服务,该卫星入轨后将进一步扩充星链星座规模,提升全球网络覆盖能力与服务稳定性。

Basic Information
目录编号:
62318
目录名称:
STARLINK-32576
国际标识:
2024-239T
轨道中心:
EARTH
卫星名称:
星链-32576
卫星全名:
星链-32576 (STARLINK-32576)
卫星状态:
已陨落 最后检测时间 2025-07-19
发射日期:
2024-12-13 UTC
国别 :
美国 (US)
星等 :
--
Orbit Information
数据来源 国际轨道数据
星历时间: 2025-07-19T18:47:09+0800
轨道信息已过期238天
半长轴: 6571.604km
偏心率: 0.0006381
轨道倾角: 53.122°
近地点辐角 204.521°
升交点赤经 180.510°
平近点角 296.634°
近地点: 189.275km
远地点: 197.663km
周期: 88.362分钟
每日圈数: 16.296553
Detailed Information
固有亮度:
5
最大亮度:
2.5
卫星平台:
Starlink V1.0
覆盖范围:
全球
运营商:
太空探索技术公司
运营商所在国:
美国
制造商(研发单位):
太空探索技术公司
制造商所在国:
美国
使用方式:
暂无
Satellite Introduction
Starlink 计划是 SpaceX 推出的全球卫星互联网项目,通过发射低轨道卫星,为全球尤其是偏远地区提供高速、低延迟的互联网服务。自 2019 年起,Starlink 已部署数千颗卫星,旨在缩小全球数字鸿沟,推动互联网普及。该项目还为军事、航空等行业提供通信支持,带来广泛经济效益。